Torna al catalogo

KUIPER-00160

AttivoComunicazioniLEO
NORAD 67765·PAYLOAD·🇺🇸 United States

Lanciato Feb 12, 2026 da Guiana Space Centre

Loading…

Prossimi Passaggi (prossime 24 ore)

TLE

AggiornatoSource: CelesTrak SupGP

Epoca: Sep 14, 2026, 21:29 UTC

1 67765C 26030B   26257.89556713 -.01081600  00000+0 -12534+0 0  2576
2 67765  51.8985  29.0787 0011461 350.7564 335.9083 14.86028227    17

Traccia KUIPER-00160 in tempo reale con AllMySat

Download on the App Store